FW3317 Weather Reports


time (UTC)temp
C
wind
direction
speed
KPH
gust
KPH
rain 1hr
cm
rain 24hr
cm
rain mn
cm
humidity
%
barometer
mb
20260507070109 10 360 0.0 4.8 0.00 0.64 0.00 86 1007.9
20260507070009 10 360 1.6 4.8 0.00 0.64 0.00 86 1008.0
20260507064505 10 360 0.0 3.2 0.00 0.64 0.00 86 1007.8
20260507063007 10 360 0.0 0.0 0.00 0.64 0.00 86 1007.8
20260507061505 10 360 0.0 3.2 0.00 0.64 0.00 86 1007.6
20260507060010 10 360 0.0 1.6 0.00 0.64 0.00 85 1007.6
20260507054512 10 360 0.0 3.2 0.00 0.64 0.00 85 1008.2
20260507053014 10 360 0.0 4.8 0.00 0.64 0.00 86 1008.1
20260507051517 10 360 0.0 3.2 0.00 0.64 0.00 86 1008.2
20260507050043 10 360 0.0 4.8 0.00 0.64 0.00 86 1008.0
20260507044524 10 360 0.0 4.8 0.00 0.64 0.00 87 1007.8
20260507043021 11 360 0.0 6.4 0.00 0.64 0.00 87 1008.0
20260507041526 11 360 0.0 4.8 0.00 0.64 0.00 87 1008.1
20260507040026 11 360 1.6 6.4 0.00 0.64 0.64 88 1008.0
20260507034519 11 360 0.0 6.4 0.00 0.64 0.64 89 1007.8
20260507033029 12 360 1.6 4.8 0.00 0.64 0.64 89 1007.4
20260507031525 13 347 0.0 6.4 0.00 0.64 0.64 89 1007.2
20260507030024 13 88 0.0 4.8 0.00 0.64 0.64 90 1007.1
20260507024523 14 130 3.2 11.3 0.00 0.64 0.64 90 1006.7
20260507023100 15 71 3.2 8.0 0.00 0.64 0.64 92 1006.8
20260507023003 15 51 1.6 8.0 0.00 0.64 0.64 92 1006.7
20260507021605 15 355 0.0 6.4 0.00 0.64 0.64 92 1006.2
20260507021517 15 355 0.0 6.4 0.00 0.64 0.64 92 1006.2
20260507020047 15 326 0.0 3.2 0.00 0.64 0.64 92 1006.3
20260507014551 15 266 0.0 9.7 0.00 0.64 0.64 92 1006.3
20260507013055 14 240 1.6 9.7 0.00 0.64 0.64 92 1006.3
20260507011558 14 336 1.6 12.9 0.00 0.64 0.64 92 1006.4
20260507010013 14 328 0.0 6.4 0.00 0.64 0.64 92 1006.2
20260507004510 14 309 0.0 6.4 0.00 0.64 0.64 92 1006.2
20260507003010 14 342 1.6 6.4 0.03 0.64 0.64 92 1005.8
20260507001513 14 257 1.6 6.4 0.03 0.64 0.64 92 1005.9
20260507000054 14 255 3.2 9.7 0.03 0.64 0.64 92 1005.9
20260506234614 14 42 1.6 16.1 0.05 0.64 0.64 92 1005.8
20260506233055 14 302 1.6 9.7 0.03 0.61 0.61 92 1005.8
20260506231558 14 360 1.6 4.8 0.03 0.61 0.61 92 1005.8
20260506230002 15 284 1.6 9.7 0.03 0.61 0.61 91 1006.0
20260506224600 15 328 1.6 9.7 0.00 0.58 0.58 91 1006.1
20260506224504 15 302 0.0 9.7 0.00 0.58 0.58 91 1006.1
20260506223015 15 290 1.6 4.8 0.03 0.58 0.58 91 1006.1
20260506221510 15 265 3.2 9.7 0.08 0.58 0.58 91 1006.2
20260506220053 15 317 1.6 6.4 0.13 0.58 0.58 91 1006.2
20260506214554 15 325 3.2 8.0 0.18 0.58 0.58 91 1006.3
20260506213056 15 238 3.2 6.4 0.18 0.56 0.56 91 1006.3
20260506211556 15 311 1.6 12.9 0.15 0.51 0.51 91 1006.4
20260506210056 15 5 1.6 6.4 0.15 0.46 0.46 90 1006.5
20260506204559 15 257 3.2 8.0 0.10 0.41 0.41 90 1006.6
20260506203054 16 267 0.0 6.4 0.08 0.38 0.38 90 1006.6
20260506203003 16 218 0.0 6.4 0.08 0.38 0.38 90 1006.6
20260506201558 16 13 3.2 12.9 0.05 0.36 0.36 89 1006.8
20260506194547 16 269 0.0 4.8 0.05 0.30 0.30 90 1007.0
20260506193028 16 323 0.0 4.8 0.10 0.30 0.30 90 1006.8
20260506191534 16 300 0.0 6.4 0.18 0.30 0.30 89 1006.5
20260506190040 16 306 0.0 0.0 0.20 0.28 0.28 89 1007.0
20260506184536 16 306 0.0 0.0 0.23 0.25 0.25 88 1007.3
20260506183043 17 323 0.0 0.0 0.20 0.20 0.20 86 1007.5
20260506181547 17 323 0.0 0.0 0.13 0.13 0.13 86 1007.7
20260506180042 17 319 0.0 3.2 0.08 0.08 0.08 83 1007.6
20260506174528 19 319 0.0 3.2 0.03 0.03 0.03 77 1007.8
20260506173029 21 15 4.8 17.7 0.00 0.00 0.00 64 1007.4
20260506171541 22 344 6.4 25.7 0.00 0.00 0.00 60 1007.2
20260506170040 22 167 6.4 22.5 0.00 0.00 0.00 61 1007.3
20260506164544 21 270 4.8 14.5 0.00 0.00 0.00 64 1007.5
20260506163040 21 240 3.2 12.9 0.00 0.00 0.00 65 1007.7
20260506161551 21 355 1.6 12.9 0.00 0.00 0.00 66 1008.2
20260506160047 20 5 8.0 17.7 0.00 0.00 0.00 66 1008.6
20260506154555 20 288 4.8 19.3 0.00 0.00 0.00 67 1008.9
20260506153056 20 190 6.4 14.5 0.00 0.00 0.00 67 1009.1
20260506151608 20 242 1.6 14.5 0.00 0.00 0.00 67 1009.4
20260506151501 20 306 3.2 14.5 0.00 0.00 0.00 67 1009.5
20260506150007 20 238 1.6 30.6 0.00 0.00 0.00 69 1009.2
20260506144504 20 343 4.8 16.1 0.00 0.00 0.00 69 1009.4
20260506143025 20 327 1.6 9.7 0.00 0.00 0.00 71 1009.2
20260506141509 19 327 4.8 14.5 0.00 0.00 0.00 72 1009.4
20260506140011 18 229 4.8 14.5 0.00 0.00 0.00 73 1009.2
20260506134514 18 319 3.2 14.5 0.00 0.00 0.00 75 1009.3
20260506133013 18 304 3.2 12.9 0.00 0.00 0.00 76 1009.4
20260506131517 17 290 3.2 9.7 0.00 0.00 0.00 76 1009.6
20260506130115 17 262 3.2 11.3 0.00 0.00 0.00 75 1009.6
20260506124503 17 344 3.2 12.9 0.00 0.00 0.00 76 1009.7
20260506123006 17 276 1.6 12.9 0.00 0.00 0.00 77 1009.4
20260506121510 17 250 1.6 14.5 0.00 0.00 0.00 77 1009.7
20260506120012 16 257 3.2 11.3 0.00 0.00 0.00 78 1009.8
20260506114520 16 316 0.0 8.0 0.00 0.00 0.00 79 1009.9
20260506113019 16 227 3.2 8.0 0.00 0.00 0.00 79 1010.0
20260506111559 16 247 3.2 9.7 0.00 0.00 0.00 79 1010.1
20260506111501 16 252 3.2 9.7 0.00 0.00 0.00 79 1010.2
20260506110007 15 311 1.6 6.4 0.00 0.00 0.00 80 1010.1
20260506104507 15 332 1.6 8.0 0.00 0.00 0.00 80 1010.2
20260506103015 15 229 1.6 12.9 0.00 0.00 0.00 79 1010.0
20260506101535 15 229 3.2 8.0 0.00 0.00 0.00 79 1010.0
20260506100021 15 252 0.0 8.0 0.00 0.00 0.00 79 1010.1
20260506094522 15 274 1.6 8.0 0.00 0.00 0.00 79 1010.0
20260506093023 15 240 1.6 4.8 0.00 0.00 0.00 78 1009.9
20260506091528 15 349 1.6 6.4 0.00 0.00 0.00 78 1010.0
20260506090029 16 323 0.0 6.4 0.00 0.00 0.00 77 1010.0
20260506084535 16 249 0.0 6.4 0.00 0.00 0.00 76 1010.1
20260506083035 16 360 1.6 9.7 0.00 0.00 0.00 76 1010.1
20260506081533 16 355 1.6 6.4 0.00 0.00 0.00 75 1009.9
20260506073048 16 291 3.2 12.9 0.00 0.00 0.00 73 1009.9
20260506071604 16 278 1.6 9.7 0.00 0.00 0.00 72 1009.7